Regional Weather Roundup
Issued by NWS

Home | Current Version | Previous Version | Graphics & Text | Print | Product List | Glossary On
Versions: 1 2 3 4 5 6 7 8 9 10 11 12 13 14 15 16 17 18 19 20 21 22 23 24 25 26 27 28 29 30 31 32 33 34 35 36 37 38 39 40 41 42 43 44 45 46 47 48 49 50
000
ASUS45 KCYS 050210
RWRWY

WYOMING REGIONAL WEATHER ROUNDUP
NATIONAL WEATHER SERVICE CHEYENNE WY
700 PM MST WED MAR 04 2015

NOTE:  "FAIR" INDICATES FEW OR NO CLOUDS BELOW 12,000 FEET
WITH NO SIGNIFICANT WEATHER AND/OR OBSTRUCTIONS TO VISIBILITY.

WYZ001-050300-
YELLOWSTONE NATIONAL PARK

CITY           SKY/WX    TMP DP  RH WIND       PRES   REMARKS
LK YELLOWSTONE   N/A     12  -3  51 VRB5      30.11R WCI   4
W YELLOWSTONE  NOT AVBL

$$
WYZ002>013-054>058-071-098>099-050300-
NORTHERN WYOMING

CITY           SKY/WX    TMP DP  RH WIND       PRES   REMARKS
JACKSON        CLEAR     10   0  61 N9        30.16R WCI  -2
CODY           FAIR      18   7  62 E8        30.08R WCI   7
GREYBULL       FAIR      19   6  57 E5        30.17R WCI  12
WORLAND        FAIR      16   7  67 SE8       30.14S WCI   5
SHERIDAN       FAIR       5  -3  69 SW5       30.12R WCI  -4
BUFFALO        FAIR      15  -3  44 MISG      30.08R
GILLETTE       FAIR       2  -2  83 SW5       30.12R WCI  -8
HULETT         FAIR       7  -4  61 S8        30.13S WCI  -6
NEWCASTLE      FAIR      10  -4  52 N5        30.16R WCI   2

$$
WYZ014>020-022>026-101>103-050300-
CENTRAL WYOMING

CITY           SKY/WX    TMP DP  RH WIND       PRES   REMARKS
BIG PINEY      FAIR      18   3  52 N13       30.11R WCI   5
PINEDALE       FAIR      14   1  57 NW13      30.11R WCI   0
DUBOIS         FAIR      18   0  45 NW20G30   30.04S WCI   1
LANDER         FAIR       8   1  73 CALM      30.10R
RIVERTON       FAIR       4  -2  76 CALM      30.12R
CASPER         FAIR       8  -2  63 SW12      30.12R WCI  -7
DOUGLAS        FAIR       5  -2  72 CALM      30.14R

$$
WYZ021-027>030-104>119-050300-
SOUTHERN WYOMING

CITY           SKY/WX    TMP DP  RH WIND       PRES   REMARKS
EVANSTON       FAIR      17   9  70 SW10      30.19R WCI   5
FORT BRIDGER   FAIR      20  13  72 W14       30.19R WCI   7
ROCK SPRINGS   FAIR      17   7  64 W17       30.12R WCI   1
DIXON          FAIR      10   3  73 NE7       30.20R WCI  -1
RAWLINS        FAIR      11   1  64 VRB3      30.11R
SARATOGA       FAIR       3  -6  66 S6        30.13R WCI  -8
LARAMIE        FAIR       3  -7  63 SW3       30.05R
CHEYENNE       FAIR      11  -4  51 NW7       30.10R WCI   0
TORRINGTON     FAIR      18   3  52 NW5       30.18R WCI  11
PINE BLUFFS    FAIR      14   1  57 NW6       30.16R WCI   5

$$


USA.gov is the U.S. government's official web portal to all federal, state and local government web resources and services.